Location: Neuvy Saint Sepulchre
(46.5953°N, 1.8122°E)
Time: 09:29:15
(UTC+02:00)

ISS - Pass Details

Date: 13 July 2021
Orbit: 419 x 421 km, 51.6° (Epoch: 04 August)

Event Time Altitude Azimuth Distance (km) Brightness Sun altitude
Rises 04:29:08 0° 296° (WNW) 2,371 0.0 -13.6°
Reaches altitude 10° 04:31:15 10° 299° (WNW) 1,505 -1.0 -13.4°
Maximum altitude 04:34:36 63° 21° (NNE) 473 -3.3 -13.1°
Drops below altitude 10° 04:37:57 10° 104° (ESE) 1,498 -0.7 -12.7°
Sets 04:40:03 0° 108° (ESE) 2,360 0.3 -12.5°
